Time,TemperatureF,DewpointF,PressureIn,WindDirection,WindDirectionDegrees,WindSpeedMPH,WindSpeedGustMPH,Humidity,HourlyPrecipIn,Conditions,Clouds,dailyrainin,SoftwareType,DateUTC
2013-03-16 00:05:00,48.5,39.0,29.78,NE,40,0.0,1.0,71,0.00,,,0.00,weatherlink.com 1.10,2013-03-16 04:05:00,
2013-03-16 00:21:00,48.2,39.0,29.78,NE,40,0.0,0.0,71,0.00,,,0.00,weatherlink.com 1.10,2013-03-16 04:21:00,
2013-03-16 00:36:00,48.1,40.0,29.79,NE,40,0.0,2.0,74,0.00,,,0.00,weatherlink.com 1.10,2013-03-16 04:36:00,
2013-03-16 00:51:00,47.8,41.0,29.79,NNE,19,2.0,2.0,76,0.00,,,0.00,weatherlink.com 1.10,2013-03-16 04:51:00,
2013-03-16 01:06:00,47.6,41.0,29.76,NNE,19,0.0,1.0,79,0.00,,,0.00,weatherlink.com 1.10,2013-03-16 05:06:00,
2013-03-16 01:21:00,46.4,42.0,29.75,NNE,19,0.0,1.0,84,0.02,,,0.02,weatherlink.com 1.10,2013-03-16 05:21:00,
2013-03-16 01:36:00,45.9,43.0,29.76,NNE,19,0.0,1.0,88,0.05,,,0.05,weatherlink.com 1.10,2013-03-16 05:36:00,
2013-03-16 01:51:00,45.5,43.0,29.75,NNW,343,1.0,4.0,90,0.11,,,0.11,weatherlink.com 1.10,2013-03-16 05:51:00,
2013-03-16 02:06:00,45.3,43.0,29.69,South,172,1.0,4.0,92,0.16,,,0.16,weatherlink.com 1.10,2013-03-16 06:06:00,
2013-03-16 02:21:00,45.7,44.0,29.71,South,180,0.0,13.0,92,0.15,,,0.17,weatherlink.com 1.10,2013-03-16 06:21:00,
2013-03-16 02:36:00,46.0,44.0,29.76,NNW,327,0.0,5.0,92,0.12,,,0.17,weatherlink.com 1.10,2013-03-16 06:36:00,
2013-03-16 02:51:00,45.3,43.0,29.72,SE,143,0.0,1.0,92,0.06,,,0.17,weatherlink.com 1.10,2013-03-16 06:51:00,
2013-03-16 03:36:00,44.1,43.0,29.69,SE,136,0.0,1.0,94,0.00,,,0.17,weatherlink.com 1.10,2013-03-16 07:36:00,
2013-03-16 03:51:00,44.2,43.0,29.68,SSE,151,1.0,2.0,94,0.00,,,0.17,weatherlink.com 1.10,2013-03-16 07:51:00,
2013-03-16 04:06:00,44.2,43.0,29.67,SSE,151,0.0,1.0,94,0.00,,,0.17,weatherlink.com 1.10,2013-03-16 08:06:00,
2013-03-16 04:21:00,44.1,43.0,29.67,SSE,151,0.0,1.0,94,0.00,,,0.17,weatherlink.com 1.10,2013-03-16 08:21:00,
2013-03-16 04:36:00,44.1,43.0,29.66,South,181,0.0,2.0,94,0.00,,,0.17,weatherlink.com 1.10,2013-03-16 08:36:00,
2013-03-16 04:51:00,44.1,43.0,29.66,South,181,0.0,1.0,94,0.00,,,0.17,weatherlink.com 1.10,2013-03-16 08:51:00,
2013-03-16 05:06:00,44.0,43.0,29.66,SSW,194,0.0,2.0,95,0.00,,,0.17,weatherlink.com 1.10,2013-03-16 09:06:00,
2013-03-16 05:21:00,44.1,43.0,29.65,SSW,194,0.0,1.0,94,0.00,,,0.17,weatherlink.com 1.10,2013-03-16 09:21:00,
2013-03-16 05:51:00,44.0,42.0,29.65,SSW,194,0.0,2.0,94,0.00,,,0.17,weatherlink.com 1.10,2013-03-16 09:51:00,
2013-03-16 06:06:00,44.3,43.0,29.65,SSE,167,1.0,2.0,94,0.00,,,0.17,weatherlink.com 1.10,2013-03-16 10:06:00,
2013-03-16 06:36:00,44.4,43.0,29.64,SSW,203,0.0,3.0,93,0.00,,,0.17,weatherlink.com 1.10,2013-03-16 10:36:00,
2013-03-16 06:51:00,44.3,42.0,29.64,SSW,212,1.0,3.0,93,0.00,,,0.17,weatherlink.com 1.10,2013-03-16 10:51:00,
2013-03-16 07:06:00,44.4,43.0,29.64,SSW,208,1.0,2.0,93,0.00,,,0.17,weatherlink.com 1.10,2013-03-16 11:06:00,
2013-03-16 07:21:00,44.7,43.0,29.64,South,172,0.0,2.0,94,0.00,,,0.17,weatherlink.com 1.10,2013-03-16 11:21:00,
2013-03-16 07:36:00,45.1,43.0,29.66,South,172,0.0,1.0,93,0.00,,,0.17,weatherlink.com 1.10,2013-03-16 11:36:00,
2013-03-16 07:51:00,45.1,43.0,29.68,South,172,0.0,2.0,93,0.00,,,0.17,weatherlink.com 1.10,2013-03-16 11:51:00,
2013-03-16 08:06:00,44.9,43.0,29.66,South,172,0.0,0.0,94,0.01,,,0.18,weatherlink.com 1.10,2013-03-16 12:06:00,
2013-03-16 08:21:00,45.1,44.0,29.64,SSW,199,0.0,2.0,95,0.01,,,0.18,weatherlink.com 1.10,2013-03-16 12:21:00,
2013-03-16 08:36:00,46.0,45.0,29.64,SSW,213,0.0,3.0,96,0.01,,,0.18,weatherlink.com 1.10,2013-03-16 12:36:00,
2013-03-16 08:52:00,46.1,45.0,29.63,SSE,154,1.0,3.0,95,0.03,,,0.20,weatherlink.com 1.10,2013-03-16 12:52:00,
2013-03-16 09:06:00,46.6,45.0,29.64,SSW,209,0.0,3.0,95,0.02,,,0.20,weatherlink.com 1.10,2013-03-16 13:06:00,
2013-03-16 09:22:00,47.1,46.0,29.63,South,175,0.0,2.0,95,0.02,,,0.20,weatherlink.com 1.10,2013-03-16 13:22:00,
2013-03-16 09:36:00,47.6,46.0,29.63,SW,219,1.0,4.0,95,0.02,,,0.20,weatherlink.com 1.10,2013-03-16 13:36:00,
2013-03-16 09:52:00,48.5,47.0,29.63,SSW,213,0.0,5.0,94,0.00,,,0.20,weatherlink.com 1.10,2013-03-16 13:52:00,
2013-03-16 10:07:00,48.9,47.0,29.63,SSW,213,2.0,5.0,94,0.00,,,0.20,weatherlink.com 1.10,2013-03-16 14:07:00,
2013-03-16 10:21:00,49.8,48.0,29.63,SW,225,0.0,2.0,94,0.00,,,0.20,weatherlink.com 1.10,2013-03-16 14:21:00,
2013-03-16 10:37:00,51.2,50.0,29.63,SSW,212,0.0,2.0,94,0.00,,,0.20,weatherlink.com 1.10,2013-03-16 14:37:00,
2013-03-16 10:52:00,53.5,51.0,29.63,SW,216,1.0,2.0,91,0.00,,,0.20,weatherlink.com 1.10,2013-03-16 14:52:00,
2013-03-16 11:07:00,56.6,52.0,29.62,SW,225,2.0,5.0,85,0.00,,,0.20,weatherlink.com 1.10,2013-03-16 15:07:00,
2013-03-16 11:22:00,59.1,53.0,29.63,SSW,211,0.0,6.0,79,0.00,,,0.20,weatherlink.com 1.10,2013-03-16 15:22:00,
2013-03-16 11:37:00,59.8,53.0,29.66,North,360,2.0,5.0,78,0.00,,,0.20,weatherlink.com 1.10,2013-03-16 15:37:00,
2013-03-16 11:52:00,60.5,53.0,29.66,NNE,21,2.0,7.0,76,0.00,,,0.20,weatherlink.com 1.10,2013-03-16 15:52:00,
2013-03-16 12:07:00,61.7,53.0,29.67,NNE,15,3.0,8.0,74,0.00,,,0.20,weatherlink.com 1.10,2013-03-16 16:07:00,
2013-03-16 12:22:00,61.7,53.0,29.68,SSW,210,3.0,7.0,72,0.00,,,0.20,weatherlink.com 1.10,2013-03-16 16:22:00,
2013-03-16 12:37:00,61.8,53.0,29.69,NE,50,4.0,7.0,72,0.00,,,0.20,weatherlink.com 1.10,2013-03-16 16:37:00,
2013-03-16 12:52:00,62.2,53.0,29.70,NNW,345,3.0,5.0,71,0.00,,,0.20,weatherlink.com 1.10,2013-03-16 16:52:00,
2013-03-16 13:07:00,62.1,52.0,29.71,North,5,3.0,5.0,70,0.00,,,0.20,weatherlink.com 1.10,2013-03-16 17:07:00,
2013-03-16 13:22:00,61.2,51.0,29.72,North,10,2.0,8.0,69,0.00,,,0.20,weatherlink.com 1.10,2013-03-16 17:22:00,
2013-03-16 13:37:00,61.5,51.0,29.73,NNE,20,0.0,6.0,69,0.00,,,0.20,weatherlink.com 1.10,2013-03-16 17:37:00,
2013-03-16 13:52:00,61.3,51.0,29.73,NNE,32,3.0,6.0,70,0.00,,,0.20,weatherlink.com 1.10,2013-03-16 17:52:00,
2013-03-16 14:07:00,60.6,50.0,29.74,North,355,6.0,6.0,68,0.00,,,0.20,weatherlink.com 1.10,2013-03-16 18:07:00,
2013-03-16 14:22:00,60.2,48.0,29.74,NNW,343,4.0,10.0,65,0.00,,,0.20,weatherlink.com 1.10,2013-03-16 18:22:00,
2013-03-16 14:37:00,61.1,49.0,29.75,North,360,2.0,9.0,64,0.00,,,0.20,weatherlink.com 1.10,2013-03-16 18:37:00,
2013-03-16 14:52:00,60.2,47.0,29.76,NNE,17,5.0,7.0,63,0.00,,,0.20,weatherlink.com 1.10,2013-03-16 18:52:00,
2013-03-16 15:07:00,58.5,47.0,29.77,NNE,19,3.0,9.0,67,0.00,,,0.20,weatherlink.com 1.10,2013-03-16 19:07:00,
2013-03-16 15:22:00,57.9,48.0,29.77,NNE,12,7.0,9.0,69,0.00,,,0.20,weatherlink.com 1.10,2013-03-16 19:22:00,
2013-03-16 15:37:00,57.1,47.0,29.78,NE,34,3.0,7.0,69,0.00,,,0.20,weatherlink.com 1.10,2013-03-16 19:37:00,
2013-03-16 15:52:00,56.3,46.0,29.79,North,360,2.0,10.0,69,0.00,,,0.20,weatherlink.com 1.10,2013-03-16 19:52:00,
2013-03-16 16:07:00,56.5,46.0,29.79,North,9,4.0,8.0,68,0.00,,,0.20,weatherlink.com 1.10,2013-03-16 20:07:00,
2013-03-16 16:22:00,55.0,45.0,29.80,NW,316,1.0,7.0,68,0.00,,,0.20,weatherlink.com 1.10,2013-03-16 20:22:00,
2013-03-16 16:37:00,54.9,45.0,29.81,NNW,345,3.0,9.0,70,0.00,,,0.20,weatherlink.com 1.10,2013-03-16 20:37:00,
2013-03-16 16:52:00,53.6,44.0,29.82,North,355,4.0,10.0,70,0.00,,,0.20,weatherlink.com 1.10,2013-03-16 20:52:00,
2013-03-16 17:07:00,53.3,44.0,29.82,NNE,32,4.0,6.0,71,0.00,,,0.20,weatherlink.com 1.10,2013-03-16 21:07:00,
2013-03-16 17:22:00,51.9,43.0,29.84,NNW,346,3.0,7.0,73,0.00,,,0.20,weatherlink.com 1.10,2013-03-16 21:22:00,
2013-03-16 17:37:00,49.8,42.0,29.85,NNW,329,3.0,7.0,75,0.00,,,0.00,weatherlink.com 1.10,2013-03-16 21:37:00,
2013-03-16 17:52:00,49.0,42.0,29.86,NNW,345,2.0,7.0,77,0.00,,,0.00,weatherlink.com 1.10,2013-03-16 21:52:00,
2013-03-16 18:07:00,48.5,42.0,29.88,North,5,2.0,6.0,78,0.00,,,0.00,weatherlink.com 1.10,2013-03-16 22:07:00,
2013-03-16 18:22:00,48.3,41.0,29.88,NW,319,3.0,7.0,76,0.00,,,0.00,weatherlink.com 1.10,2013-03-16 22:22:00,
2013-03-16 18:37:00,47.7,41.0,29.89,NNW,342,4.0,6.0,78,0.00,,,0.00,weatherlink.com 1.10,2013-03-16 22:37:00,
2013-03-16 18:52:00,46.6,40.0,29.91,North,355,2.0,7.0,79,0.00,,,0.00,weatherlink.com 1.10,2013-03-16 22:52:00,
2013-03-16 19:07:00,45.5,40.0,29.90,North,11,3.0,5.0,81,0.00,,,0.00,weatherlink.com 1.10,2013-03-16 23:07:00,
2013-03-16 19:22:00,44.8,40.0,29.91,NNW,344,3.0,7.0,82,0.00,,,0.00,weatherlink.com 1.10,2013-03-16 23:22:00,
2013-03-16 19:37:00,44.1,39.0,29.91,North,5,2.0,6.0,82,0.00,,,0.00,weatherlink.com 1.10,2013-03-16 23:37:00,
2013-03-16 19:53:00,43.6,38.0,29.92,North,355,2.0,6.0,82,0.00,,,0.00,weatherlink.com 1.10,2013-03-16 23:53:00,
2013-03-16 20:08:00,43.0,38.0,29.92,North,5,4.0,6.0,82,0.00,,,0.00,weatherlink.com 1.10,2013-03-17 00:08:00,
2013-03-16 20:23:00,42.5,37.0,29.92,North,360,3.0,4.0,82,0.00,,,0.00,weatherlink.com 1.10,2013-03-17 00:23:00,
2013-03-16 20:38:00,42.1,37.0,29.91,North,360,0.0,5.0,83,0.00,,,0.00,weatherlink.com 1.10,2013-03-17 00:38:00,
2013-03-16 20:53:00,41.6,36.0,29.93,NNW,348,2.0,4.0,81,0.00,,,0.00,weatherlink.com 1.10,2013-03-17 00:53:00,
2013-03-16 21:08:00,41.1,36.0,29.93,NNW,344,3.0,4.0,82,0.00,,,0.00,weatherlink.com 1.10,2013-03-17 01:08:00,
2013-03-16 21:23:00,40.5,35.0,29.94,NNW,346,0.0,4.0,81,0.00,,,0.00,weatherlink.com 1.10,2013-03-17 01:23:00,
2013-03-16 21:38:00,40.2,35.0,29.96,North,355,1.0,5.0,82,0.00,,,0.00,weatherlink.com 1.10,2013-03-17 01:38:00,
2013-03-16 21:53:00,39.9,35.0,29.98,North,350,2.0,4.0,81,0.00,,,0.00,weatherlink.com 1.10,2013-03-17 01:53:00,
2013-03-16 22:08:00,39.7,35.0,29.99,North,350,1.0,3.0,82,0.00,,,0.00,weatherlink.com 1.10,2013-03-17 02:08:00,
2013-03-16 22:23:00,39.6,35.0,29.99,North,350,1.0,3.0,82,0.00,,,0.00,weatherlink.com 1.10,2013-03-17 02:23:00,
2013-03-16 22:38:00,39.4,34.0,29.99,North,360,2.0,3.0,82,0.00,,,0.00,weatherlink.com 1.10,2013-03-17 02:38:00,
2013-03-16 22:53:00,39.3,34.0,30.00,North,360,1.0,3.0,81,0.00,,,0.00,weatherlink.com 1.10,2013-03-17 02:53:00,
2013-03-16 23:08:00,39.2,34.0,30.00,NW,323,0.0,3.0,82,0.00,,,0.00,weatherlink.com 1.10,2013-03-17 03:08:00,
2013-03-16 23:23:00,39.1,34.0,30.01,NNW,346,0.0,3.0,82,0.00,,,0.00,weatherlink.com 1.10,2013-03-17 03:23:00,
2013-03-16 23:38:00,39.0,34.0,30.01,WNW,302,0.0,3.0,82,0.00,,,0.00,weatherlink.com 1.10,2013-03-17 03:38:00,
2013-03-16 23:53:00,38.8,34.0,30.01,WNW,302,1.0,3.0,82,0.00,,,0.00,weatherlink.com 1.10,2013-03-17 03:53:00,